Location: Newark
(34.9500°N, 139.9667°E)
Time: 05:36:51
(UTC+00:00)

Vanguard 2 Rocket - Pass Details

Date: 16 December 2019
Orbit: 554 x 3326 km, 32.9° (Epoch: 23 January)

Event Time Altitude Azimuth Distance (km) Brightness Sun altitude
Rises 10:20:15 0° 275° (W) 6,479 12.3 -34.0°
Reaches altitude 10° 10:25:11 10° 274° (W) 5,066 11.5 -35.0°
Enters shadow 10:38:18 73° 197° (SSW) 1,602 7.9 -37.6°
Maximum altitude 10:38:23 73° 194° (SSW) 1,596 - -37.7°
Drops below altitude 10° 10:45:32 10° 110° (ESE) 2,884 - -39.1°
Sets 10:47:38 0° 108° (ESE) 3,599 - -39.6°
